Hourly Data Report for May 27, 2019

MIRAMICHI RCS
NEW BRUNSWICK
Current Station Operator: ECCC - MSC

47°00'34.000" N
65°27'54.000" W
33.00 m
8100989
71744
ACQ

Download Data

Hourly Data (May 2019)
Hourly Data Report for May 27, 2019
TIME
LST
Temp Definition
°C
Dew Point Definition
°C
Rel Hum Definition
%
Precip. Amount Definition
mm

Wind Dir Definition
10's deg

Wind Spd Definition
km/h
Visibility Definition
km
Stn Press Definition
kPa
Hmdx Definition


Wind Chill Definition


Weather Definition


00:00 9.8 9.2 96 0.0 23 9   100.55     LegendNANA
01:00 9.7 9.2 96 0.0 21 11   100.55     LegendNANA
02:00 9.7 9.1 96 0.3 22 11   100.54     LegendNANA
03:00 9.7 9.0 96 0.0 23 13   100.51     LegendNANA
04:00 9.7 9.1 96 0.0 24 12   100.53     LegendNANA
05:00 9.6 9.2 97 0.0 23 11   100.54     LegendNANA
06:00 9.8 9.3 97 0.0 25 12   100.58     LegendNANA
07:00 10.3 9.8 97 0.0 25 11   100.63     LegendNANA
08:00 11.8 10.0 89 0.0 24 11   100.62     LegendNANA
09:00 12.9 7.9 72 0.0 29 13   100.62     LegendNANA
10:00 13.4 6.0 61 0.0 29 18   100.60     LegendNANA
11:00 13.5 5.3 58 0.0 31 16   100.57     LegendNANA
12:00 13.0 5.3 59 0.0 32 16   100.58     LegendNANA
13:00 13.3 4.7 56 0.0 31 13   100.59     LegendNANA
14:00 13.2 4.0 54 0.0 30 13   100.59     LegendNANA
15:00 14.1 3.4 48 0.0 28 16   100.56     LegendNANA
16:00 13.8 2.0 45 0.0 30 16   100.56     LegendNANA
17:00 15.3 1.9 40 0.0 28 15   100.50     LegendNANA
18:00 14.8 2.1 42 0.0 32 5   100.47     LegendNANA
19:00 14.2 1.7 43 0.0 33 5   100.54     LegendNANA
20:00 12.5 0.7 45 0.0 2 10   100.64     LegendNANA
21:00 10.9 -2.1 40 0.0 33 15   100.80     LegendNANA
22:00 8.5 -2.9 44 0.0 34 7   100.86     LegendNANA
23:00 6.8 -2.9 50 0.0 31 5   100.88     LegendNANA

Notes on Data Quality.

Legend

  • E = Estimated
  • M = Missing
  • NA = Not Available*
  • [empty] = Indicates an unobserved value
Date modified: